Rochester, Indiana, United States (46975)
Lat: 41.06N, Lon: 86.22W
Wx Zone: INZ015
Local Info
Past Weather Observations for Today

NOTE: This archive is for the closest National Weather Service station to Rochester. Information may differ from the station used for current weather conditions.

Click here for Long-term Archive

Time Weather Temperature Dewpoint Humidity Pressure Winds Precip Visibility
20:35
Clear
10°F / -12°C 1°F / -17°C 67% 30.63 in
(1037 mb)
SW 3.5 mph
(SW 6 kph)
- 10SM
20:15
Clear
12°F / -11°C 1°F / -17°C 62% 30.63 in
(1037 mb)
SSW 3.5 mph
(SSW 6 kph)
- 10SM
19:55
Clear
12°F / -11°C 3°F / -16°C 67% 30.63 in
(1037 mb)
SSW 4.6 mph
(SSW 7 kph)
- 10SM
19:35
Clear
12°F / -11°C 3°F / -16°C 67% 30.63 in
(1037 mb)
Calm - 10SM
19:15
Clear
14°F / -10°C 3°F / -16°C 62% 30.63 in
(1037 mb)
Calm - 10SM
18:55
Clear
14°F / -10°C 5°F / -15°C 67% 30.6 in
(1036 mb)
SW 3.5 mph
(SW 6 kph)
- 10SM
18:35
Clear
14°F / -10°C 5°F / -15°C 67% 30.6 in
(1036 mb)
SW 3.5 mph
(SW 6 kph)
- 10SM
18:15
Clear
14°F / -10°C 5°F / -15°C 67% 30.6 in
(1036 mb)
Calm - 10SM
17:55
Clear
14°F / -10°C 3°F / -16°C 62% 30.6 in
(1036 mb)
SSW 6.9 mph
(SSW 11 kph)
- 10SM
17:35
Clear
16°F / -9°C 3°F / -16°C 57% 30.6 in
(1036 mb)
SSW 4.6 mph
(SSW 7 kph)
- 10SM
17:15
Partly Cloudy
16°F / -9°C 3°F / -16°C 57% 30.6 in
(1036 mb)
SSW 4.6 mph
(SSW 7 kph)
- 10SM
16:55
Partly Cloudy
16°F / -9°C 3°F / -16°C 57% 30.6 in
(1036 mb)
SSW 4.6 mph
(SSW 7 kph)
- 10SM
16:35
Partly Cloudy
18°F / -8°C 3°F / -16°C 53% 30.6 in
(1036 mb)
W 5.8 mph
(W 9 kph)
- 10SM
16:15
Partly Cloudy
18°F / -8°C 3°F / -16°C 53% 30.57 in
(1035 mb)
NW 4.6 mph
(NW 7 kph)
- 10SM
15:55
Overcast
18°F / -8°C 3°F / -16°C 53% 30.57 in
(1035 mb)
WNW 6.9 mph
(WNW 11 kph)
- 10SM
15:35
Overcast
18°F / -8°C 5°F / -15°C 58% 30.57 in
(1035 mb)
W 5.8 mph
(W 9 kph)
- 10SM
15:15
Mostly Cloudy
18°F / -8°C 3°F / -16°C 53% 30.57 in
(1035 mb)
NW 6.9 mph
(NW 11 kph)
- 10SM
14:55
Mostly Cloudy
19°F / -7°C 3°F / -16°C 49% 30.57 in
(1035 mb)
WNW 6.9 mph
(WNW 11 kph)
- 10SM
14:35
Mostly Cloudy
19°F / -7°C 3°F / -16°C 49% 30.57 in
(1035 mb)
SSW 3.5 mph
(SSW 6 kph)
- 10SM
14:15
Mostly Cloudy
19°F / -7°C 3°F / -16°C 49% 30.57 in
(1035 mb)
SSW 6.9 mph
(SSW 11 kph)
- 10SM
13:55
Partly Cloudy
19°F / -7°C 3°F / -16°C 49% 30.57 in
(1035 mb)
NW 8.1 mph
(NW 13 kph)
- 10SM
13:35
Partly Cloudy
18°F / -8°C 3°F / -16°C 53% 30.57 in
(1035 mb)
WNW 3.5 mph
(WNW 6 kph)
- 10SM
13:15
Clear
18°F / -8°C 3°F / -16°C 53% 30.6 in
(1036 mb)
W 8.1 mph
(W 13 kph)
- 10SM
12:55
Clear
18°F / -8°C 1°F / -17°C 49% 30.6 in
(1036 mb)
W 5.8 mph
(W 9 kph)
- 10SM
12:35
Clear
18°F / -8°C 1°F / -17°C 49% 30.6 in
(1036 mb)
NW 5.8 mph
(NW 9 kph)
- 10SM
12:15
Clear
18°F / -8°C °F / -18°C 45% 30.6 in
(1036 mb)
NW 4.6 mph
(NW 7 kph)
- 10SM
11:55
Clear
16°F / -9°C °F / -18°C 48% 30.6 in
(1036 mb)
WNW 4.6 mph
(WNW 7 kph)
- 10SM
11:35
Clear
14°F / -10°C -2°F / -19°C 48% 30.57 in
(1035 mb)
WNW 3.5 mph
(WNW 6 kph)
- 10SM
11:15
Clear
14°F / -10°C -2°F / -19°C 48% 30.57 in
(1035 mb)
WNW 3.5 mph
(WNW 6 kph)
- 10SM
10:55
Clear
14°F / -10°C -2°F / -19°C 48% 30.57 in
(1035 mb)
Calm - 10SM
10:35
Partly Cloudy
12°F / -11°C -4°F / -20°C 48% 30.57 in
(1035 mb)
Calm - 10SM
10:15
Mostly Cloudy
10°F / -12°C -4°F / -20°C 52% 30.57 in
(1035 mb)
Calm - 10SM
09:55
Partly Cloudy
9°F / -13°C -4°F / -20°C 56% 30.54 in
(1034 mb)
Calm - 10SM
09:35
Clear
5°F / -15°C -6°F / -21°C 60% 30.54 in
(1034 mb)
Calm - 10SM
09:15
Clear
5°F / -15°C -4°F / -20°C 66% 30.54 in
(1034 mb)
Calm - 10SM
08:55
Clear
1°F / -17°C -4°F / -20°C 78% 30.54 in
(1034 mb)
Calm - 10SM
08:35
Clear
°F / -18°C -4°F / -20°C 84% 30.51 in
(1033 mb)
Calm - 10SM
08:15
Clear
-2°F / -19°C -6°F / -21°C 84% 30.51 in
(1033 mb)
Calm - 10SM
07:55
Clear
-2°F / -19°C -6°F / -21°C 84% 30.51 in
(1033 mb)
Calm - 10SM
07:35
Clear
-4°F / -20°C -6°F / -21°C 92% 30.51 in
(1033 mb)
Calm - 10SM
07:15
Clear
-2°F / -19°C -6°F / -21°C 84% 30.48 in
(1032 mb)
Calm - 10SM
06:55
Clear
°F / -18°C -6°F / -21°C 78% 30.48 in
(1032 mb)
Calm - 10SM
06:35
Clear
°F / -18°C -6°F / -21°C 78% 30.48 in
(1032 mb)
Calm - 10SM
06:15
Clear
1°F / -17°C -4°F / -20°C 78% 30.45 in
(1031 mb)
Calm - 10SM
05:55
Partly Cloudy
3°F / -16°C -4°F / -20°C 72% 30.45 in
(1031 mb)
Calm - 10SM
05:35
Mostly Cloudy
3°F / -16°C -2°F / -19°C 78% 30.45 in
(1031 mb)
Calm - 10SM
05:15
Mostly Cloudy
3°F / -16°C °F / -18°C 85% 30.45 in
(1031 mb)
Calm - 10SM
04:55
Overcast
3°F / -16°C °F / -18°C 85% 30.45 in
(1031 mb)
Calm - 10SM
04:35
Overcast
3°F / -16°C °F / -18°C 85% 30.42 in
(1030 mb)
Calm - 10SM
04:15
Overcast
1°F / -17°C -2°F / -19°C 85% 30.42 in
(1030 mb)
Calm - 10SM
03:55
Overcast
1°F / -17°C -2°F / -19°C 85% 30.42 in
(1030 mb)
Calm - 10SM
03:35
Overcast
3°F / -16°C -2°F / -19°C 78% 30.42 in
(1030 mb)
Calm - 10SM
03:15
Overcast
3°F / -16°C -2°F / -19°C 78% 30.39 in
(1029 mb)
Calm - 10SM
02:55
Overcast
3°F / -16°C -2°F / -19°C 78% 30.39 in
(1029 mb)
Calm - 10SM
02:35
Overcast
3°F / -16°C °F / -18°C 85% 30.39 in
(1029 mb)
Calm - 10SM
02:15
Overcast
1°F / -17°C -4°F / -20°C 78% 30.39 in
(1029 mb)
Calm - 10SM
01:55
Overcast
1°F / -17°C -4°F / -20°C 78% 30.39 in
(1029 mb)
Calm - 10SM
01:35
Overcast
1°F / -17°C -4°F / -20°C 78% 30.39 in
(1029 mb)
Calm - 10SM
01:15
Mostly Cloudy
°F / -18°C -4°F / -20°C 84% 30.36 in
(1028 mb)
Calm - 10SM
00:55
Mostly Cloudy
1°F / -17°C -4°F / -20°C 78% 30.36 in
(1028 mb)
Calm - 10SM
00:35
Mostly Cloudy
3°F / -16°C -2°F / -19°C 78% 30.36 in
(1028 mb)
Calm - 10SM
00:15
Partly Cloudy
3°F / -16°C -2°F / -19°C 78% 30.36 in
(1028 mb)
Calm - 10SM
Time Weather Temperature Dewpoint Humidity Pressure Winds Precip Visibility


Weather for websites

WeatherForYou.com, LLC is not responsible for any damages or problems caused by this service. Current weather conditions are obtained from the closest station including government and personal stations which may have varying degrees of accuracy. Weather forecasts are derived from the NOAA NDFD. Like all things, this site belongs to Jesus Christ... He just trusts me to maintain it. If you have any questions or comments email webmaster@weatherforyou.com

Copyright © 2015, WeatherForYou.com LLC. All rights reserved.